Location: Unspecified
(43.4680°N, 87.1740°E)
Time: 21:12:54
(UTC+00:00)

NOSS 3-4 (C) - Pass Details

Date: 17 April 2021
Orbit: 873 x 1339 km, 63.4° (Epoch: 06 May)

Event Time Altitude Azimuth Distance (km) Brightness Sun altitude
Rises 22:39:03 0° 318° (NW) 3,878 6.4 -8.5°
Reaches altitude 10° 22:41:42 10° 313° (NW) 2,985 5.8 -8.1°
Maximum altitude 22:48:27 45° 243° (WSW) 1,579 4.2 -7.0°
Drops below altitude 10° 22:55:51 10° 174° (S) 3,269 6.1 -5.7°
Sets 22:58:54 0° 168° (SSE) 4,278 6.8 -5.2°
